Location: San Gennaro Vesuviano
(40.8833°N, 14.5333°E)
Time: 22:08:48
(UTC+00:00)

Resurs 01 Rocket - Pass Details

Date: 22 April 2021
Orbit: 634 x 644 km, 97.9° (Epoch: 10 May)

Event Time Altitude Azimuth Distance (km) Brightness Sun altitude
Exits shadow 19:08:36 24° 125° (SE) 1,345 2.7 -14.5°
Maximum altitude 19:10:48 40° 71° (ENE) 952 2.2 -14.9°
Drops below altitude 10° 19:14:58 10° 2° (N) 2,049 4.6 -15.5°
Sets 19:17:16 0° 356° (N) 2,963 5.6 -15.9°
